Cas;Teplota [C];Tlak [hPa];Svetlo [lux];Rychlost vetru [km/h];Smer vetru [stupne]
2019-06-27 00:00:01;30,71;1013,84;25;0;0
2019-06-27 00:00:31;30,64;1013,82;26;0;0
2019-06-27 00:01:01;30,52;1013,78;25;0;0
2019-06-27 00:01:32;30,55;1013,77;26;0;0
2019-06-27 00:02:02;30,61;1013,75;25;0;0
2019-06-27 00:02:31;30,59;1013,75;26;0;0
2019-06-27 00:03:01;30,63;1013,85;25;0;0
2019-06-27 00:03:31;30,44;1013,84;25;0;0
2019-06-27 00:04:01;30,54;1013,88;25;0;0
2019-06-27 00:04:31;30,49;1013,92;25;0;0
2019-06-27 00:05:01;30,26;1013,94;26;0;0
2019-06-27 00:05:31;30,38;1013,92;26;0;0
2019-06-27 00:06:02;30,34;1013,95;25;0;0
2019-06-27 00:06:31;30,34;1013,91;25;0;0
2019-06-27 00:07:01;30,35;1013,93;25;0;0
2019-06-27 00:07:31;30,47;1014;25;0;0
2019-06-27 00:08:01;30,48;1013,96;25;0;0
2019-06-27 00:08:31;30,57;1013,95;25;0;0
2019-06-27 00:09:01;30,51;1013,97;25;0;0
2019-06-27 00:09:31;30,3;1013,94;25;0;0
2019-06-27 00:10:01;30,42;1014;25;0;0
2019-06-27 00:10:31;30,29;1014,03;25;0;0
2019-06-27 00:11:01;30,4;1014,01;25;0;0
2019-06-27 00:11:32;30,39;1014,04;25;0;0
2019-06-27 00:12:01;30,25;1014,02;25;0;0
2019-06-27 00:12:31;30,25;1013,99;25;0;0
2019-06-27 00:13:01;30,1;1014,06;25;0;0
2019-06-27 00:13:31;30,21;1014;25;0;0
2019-06-27 00:14:01;30,13;1013,96;25;0;0
2019-06-27 00:14:31;30,01;1013,9;25;0;0
2019-06-27 00:15:01;29,97;1013,94;26;0;0
2019-06-27 00:15:31;30,13;1013,97;26;0;0
2019-06-27 00:16:01;30,07;1013,96;26;0;0
2019-06-27 00:16:31;30,02;1014;25;0;0
2019-06-27 00:17:01;29,96;1014,06;25;0;0
2019-06-27 00:17:31;29,94;1014,11;25;0;0
2019-06-27 00:18:01;29,94;1014,12;25;0;0
2019-06-27 00:18:31;30,15;1014,1;25;0;0
2019-06-27 00:19:01;30,12;1014,11;25;0;0
2019-06-27 00:19:31;30,19;1014,15;25;0;0
2019-06-27 00:20:01;30,17;1014,13;25;0;0
2019-06-27 00:20:31;30,17;1014,13;25;0;0
2019-06-27 00:21:01;30,11;1014,13;25;0;0
2019-06-27 00:21:31;30,14;1014,12;25;0;0
2019-06-27 00:22:01;30,03;1014,14;25;0;0
2019-06-27 00:22:32;30,06;1014,12;25;0;0
2019-06-27 00:23:01;30,08;1014,08;25;0;0
2019-06-27 00:23:31;30,1;1014,08;25;0;0
2019-06-27 00:24:01;30,24;1014,11;25;0;0
2019-06-27 00:24:31;30,13;1014,13;25;0;0
2019-06-27 00:25:01;30,07;1014,19;25;0;0
2019-06-27 00:25:31;30,17;1014,17;25;0;0
2019-06-27 00:26:01;30,15;1014,18;24;0;0
2019-06-27 00:26:31;30,05;1014,23;25;0;0
2019-06-27 00:27:01;30,02;1014,23;25;0;0
2019-06-27 00:27:31;30,05;1014,21;25;0;0
2019-06-27 00:28:01;30,18;1014,14;25;0;0
2019-06-27 00:28:31;29,95;1014,15;25;0;0
2019-06-27 00:29:02;30;1014,16;25;0;0
2019-06-27 00:29:31;29,91;1014,17;24;0;0
2019-06-27 00:30:01;29,9;1014,14;24;0;0
2019-06-27 00:30:31;29,85;1014,13;25;0;0
2019-06-27 00:31:01;29,89;1014,17;25;0;0
2019-06-27 00:31:31;29,95;1014,19;25;0;0
2019-06-27 00:32:01;29,93;1014,17;25;0;0
2019-06-27 00:32:32;30,09;1014,19;25;0;0
2019-06-27 00:33:01;30,02;1014,23;25;0;0
2019-06-27 00:33:31;30,11;1014,2;25;0;0
2019-06-27 00:34:01;29,99;1014,22;25;2,56;0
2019-06-27 00:34:31;29,96;1014,15;25;0;0
2019-06-27 00:35:01;29,91;1014,11;25;0;0
2019-06-27 00:35:31;30,09;1014,18;25;0;0
2019-06-27 00:36:03;29,96;1014,17;25;2,6;62
2019-06-27 00:36:31;30,07;1014,16;25;0;0
2019-06-27 00:37:01;30,01;1014,16;25;0;0
2019-06-27 00:37:31;29,88;1014,16;25;0;0
2019-06-27 00:38:01;29,87;1014,24;25;0;0
2019-06-27 00:38:31;29,82;1014,23;25;0;0
2019-06-27 00:39:01;29,9;1014,19;25;0;0
2019-06-27 00:39:31;29,9;1014,11;25;0;0
2019-06-27 00:40:01;29,69;1014,17;24;0;0
2019-06-27 00:40:31;29,93;1014,28;25;0;0
2019-06-27 00:41:01;29,95;1014,24;25;2,66;49
2019-06-27 00:41:31;29,74;1014,23;24;0;0
2019-06-27 00:42:01;29,73;1014,27;25;0;0
2019-06-27 00:42:32;29,85;1014,3;25;0;0
2019-06-27 00:43:01;29,85;1014,34;25;0;0
2019-06-27 00:43:31;29,86;1014,35;26;0;0
2019-06-27 00:44:02;30,03;1014,31;25;0;0
2019-06-27 00:44:31;30,04;1014,35;25;0;0
2019-06-27 00:45:02;29,83;1014,36;24;0;0
2019-06-27 00:45:31;29,87;1014,34;24;0;0
2019-06-27 00:46:01;29,74;1014,35;25;0;0
2019-06-27 00:46:31;29,77;1014,27;25;0;0
2019-06-27 00:47:01;29,94;1014,32;25;0;0
2019-06-27 00:47:31;29,94;1014,32;24;0;0
2019-06-27 00:48:01;29,75;1014,27;25;0;0
2019-06-27 00:48:31;29,7;1014,3;25;0;0
2019-06-27 00:49:01;29,83;1014,31;25;0;0
2019-06-27 00:49:31;29,92;1014,32;25;0;0
2019-06-27 00:50:01;29,86;1014,3;25;0;0
2019-06-27 00:50:31;29,82;1014,3;25;0;0
2019-06-27 00:51:01;29,87;1014,3;25;2,18;45
2019-06-27 00:51:31;29,83;1014,32;25;0;0
2019-06-27 00:52:01;29,88;1014,32;25;0;0
2019-06-27 00:52:31;29,73;1014,27;25;0;0
2019-06-27 00:53:01;29,72;1014,29;25;0;0
2019-06-27 00:53:32;29,6;1014,29;25;0;0
2019-06-27 00:54:01;29,62;1014,36;25;0;0
2019-06-27 00:54:31;29,62;1014,25;25;0;0
2019-06-27 00:55:01;29,71;1014,29;25;0;0
2019-06-27 00:55:31;29,62;1014,31;25;0;0
2019-06-27 00:56:01;29,57;1014,29;25;0;0
2019-06-27 00:56:31;29,5;1014,29;25;0;0
2019-06-27 00:57:01;29,55;1014,24;25;0;0
2019-06-27 00:57:31;29,55;1014,28;25;0;0
2019-06-27 00:58:01;29,56;1014,26;25;0;0
2019-06-27 00:58:31;29,66;1014,23;25;0;0
2019-06-27 00:59:01;29,66;1014,22;25;0;0
2019-06-27 00:59:31;29,69;1014,24;25;0;0
2019-06-27 01:00:02;29,6;1014,27;25;0;0
2019-06-27 01:00:31;29,6;1014,3;25;0;0
2019-06-27 01:01:01;29,68;1014,21;25;0;0
2019-06-27 01:01:31;29,65;1014,19;25;0;0
2019-06-27 01:02:01;29,47;1014,21;24;0;0
2019-06-27 01:02:31;29,51;1014,16;24;2,33;61
2019-06-27 01:03:01;29,64;1014,2;24;0;0
2019-06-27 01:03:32;29,55;1014,16;24;0;0
2019-06-27 01:04:02;29,44;1014,15;24;0;0
2019-06-27 01:04:31;29,49;1014,15;25;0;0
2019-06-27 01:05:01;29,45;1014,23;25;0;0
2019-06-27 01:05:31;29,47;1014,21;25;0;0
2019-06-27 01:06:01;29,49;1014,28;25;0;0
2019-06-27 01:06:31;29,32;1014,27;25;0;0
2019-06-27 01:07:02;29,33;1014,26;25;0;0
2019-06-27 01:07:31;29,54;1014,23;25;0;0
2019-06-27 01:08:01;29,53;1014,21;25;0;0
2019-06-27 01:08:31;29,39;1014,18;25;0;0
2019-06-27 01:09:01;29,49;1014,24;25;0;0
2019-06-27 01:09:31;29,5;1014,13;25;0;0
2019-06-27 01:10:01;29,55;1014,17;25;0;0
2019-06-27 01:10:31;29,55;1014,21;25;0;0
2019-06-27 01:11:01;29,53;1014,31;25;0;0
2019-06-27 01:11:31;29,48;1014,31;25;0;0
2019-06-27 01:12:01;29,36;1014,29;25;0;0
2019-06-27 01:12:32;29,36;1014,29;25;0;0
2019-06-27 01:13:01;29,3;1014,3;25;2,81;0
2019-06-27 01:13:31;29,31;1014,32;25;2,7;34
2019-06-27 01:14:01;29,3;1014,39;25;0;0
2019-06-27 01:14:31;29,42;1014,41;25;0;0
2019-06-27 01:15:01;29,31;1014,47;25;0;0
2019-06-27 01:15:31;29,55;1014,5;25;2,77;206
2019-06-27 01:16:01;29,41;1014,46;25;0;0
2019-06-27 01:16:31;29,35;1014,48;25;2,38;265
2019-06-27 01:17:01;29,36;1014,47;25;0;0
2019-06-27 01:17:31;29,29;1014,46;25;0;0
2019-06-27 01:18:01;29,39;1014,5;25;0;0
2019-06-27 01:18:31;29,34;1014,52;25;0;0
2019-06-27 01:19:01;29,37;1014,5;25;0;0
2019-06-27 01:19:31;29,32;1014,49;25;0;0
2019-06-27 01:20:01;29,35;1014,51;25;0;0
2019-06-27 01:20:31;29,28;1014,55;25;0;0
2019-06-27 01:21:01;29,26;1014,56;25;0;0
2019-06-27 01:21:31;29,26;1014,53;25;0;0
2019-06-27 01:22:01;29,27;1014,57;25;0;0
2019-06-27 01:22:31;29,28;1014,57;24;2,82;17
2019-06-27 01:23:01;29,19;1014,59;25;0;0
2019-06-27 01:23:32;29,24;1014,62;24;0;0
2019-06-27 01:24:01;29,24;1014,6;25;2,75;227
2019-06-27 01:24:31;29,32;1014,6;25;2,73;0
2019-06-27 01:25:01;29,27;1014,58;24;0;0
2019-06-27 01:25:31;29,13;1014,58;25;2,62;0
2019-06-27 01:26:02;29,16;1014,61;25;0;0
2019-06-27 01:26:31;29,19;1014,63;25;0;0
2019-06-27 01:27:01;29,29;1014,62;25;0;0
2019-06-27 01:27:31;29,31;1014,65;24;0;0
2019-06-27 01:28:01;29,24;1014,66;25;0;0
2019-06-27 01:28:31;29,3;1014,66;25;0;0
2019-06-27 01:29:01;29,2;1014,68;25;0;0
2019-06-27 01:29:31;29,16;1014,68;25;0;0
2019-06-27 01:30:01;29,23;1014,69;25;0;0
2019-06-27 01:30:31;29,11;1014,68;25;0;0
2019-06-27 01:31:01;29,05;1014,68;25;0;0
2019-06-27 01:31:31;28,87;1014,67;25;0;0
2019-06-27 01:32:01;28,94;1014,68;25;0;0
2019-06-27 01:32:31;28,97;1014,67;25;0;0
2019-06-27 01:33:01;28,85;1014,65;24;0;0
2019-06-27 01:33:31;28,87;1014,67;25;0;0
2019-06-27 01:34:01;28,95;1014,68;25;0;0
2019-06-27 01:34:32;28,82;1014,68;25;0;0
2019-06-27 01:35:01;28,81;1014,68;25;0;0
2019-06-27 01:35:31;28,8;1014,69;24;0;0
2019-06-27 01:36:01;28,73;1014,69;25;0;0
2019-06-27 01:36:31;28,73;1014,7;25;0;0
2019-06-27 01:37:01;28,54;1014,7;25;0;0
2019-06-27 01:37:31;28,69;1014,7;25;0;0
2019-06-27 01:38:01;28,53;1014,7;24;2,7;0
2019-06-27 01:38:31;28,66;1014,7;25;0;0
2019-06-27 01:39:01;28,65;1014,7;25;0;0
2019-06-27 01:39:31;28,68;1014,7;24;0;0
2019-06-27 01:40:02;28,52;1014,71;25;0;0
2019-06-27 01:40:31;28,63;1014,7;25;0;0
2019-06-27 01:41:01;28,55;1014,7;24;0;0
2019-06-27 01:41:31;28,67;1014,7;24;0;0
2019-06-27 01:42:01;28,62;1014,7;24;0;0
2019-06-27 01:42:31;28,45;1014,7;24;0;0
2019-06-27 01:43:01;28,41;1014,7;24;0;0
2019-06-27 01:43:31;28,54;1014,7;24;0;0
2019-06-27 01:44:01;28,51;1014,7;25;0;0
2019-06-27 01:44:32;28,47;1014,7;24;0;0
2019-06-27 01:45:01;28,41;1014,7;24;0;0
2019-06-27 01:45:31;28,48;1014,7;24;0;0
2019-06-27 01:46:01;28,53;1014,72;25;0;0
2019-06-27 01:46:31;28,46;1014,71;24;0;0
2019-06-27 01:47:01;28,31;1014,7;25;0;0
2019-06-27 01:47:31;28,39;1014,7;25;0;0
2019-06-27 01:48:01;28,46;1014,7;25;0;0
2019-06-27 01:48:31;28,3;1014,7;24;0;0
2019-06-27 01:49:01;28,25;1014,7;24;0;0
2019-06-27 01:49:31;28,25;1014,7;24;0;0
2019-06-27 01:50:01;28,17;1014,7;24;0;0
2019-06-27 01:50:31;28,18;1014,7;25;0;0
2019-06-27 01:51:01;28,27;1014,7;24;2,86;243
2019-06-27 01:51:31;28,1;1014,7;24;0;0
2019-06-27 01:52:01;28,18;1014,71;24;0;0
2019-06-27 01:52:31;28,24;1014,71;24;0;0
2019-06-27 01:53:01;28,25;1014,7;24;0;0
2019-06-27 01:53:31;28,24;1014,7;24;0;0
2019-06-27 01:54:01;28,24;1014,7;23;0;0
2019-06-27 01:54:31;28,25;1014,7;24;0;0
2019-06-27 01:55:01;28,24;1014,7;24;0;0
2019-06-27 01:55:32;28,13;1014,7;24;0;0
2019-06-27 01:56:01;28,18;1014,7;24;0;0
2019-06-27 01:56:31;28,22;1014,7;24;0;0
2019-06-27 01:57:02;28,16;1014,7;24;0;0
2019-06-27 01:57:31;28,23;1014,7;24;0;0
2019-06-27 01:58:01;28,27;1014,7;24;0;0
2019-06-27 01:58:31;28,17;1014,7;24;0;0
2019-06-27 01:59:01;28,32;1014,7;24;0;0
2019-06-27 01:59:31;28,24;1014,7;24;0;0
2019-06-27 02:00:01;28,18;1014,7;24;0;0
2019-06-27 02:00:31;28,19;1014,71;24;0;0
2019-06-27 02:01:01;28,18;1014,72;24;0;0
2019-06-27 02:01:31;28,27;1014,71;25;0;0
2019-06-27 02:02:01;28,16;1014,69;24;0;0
2019-06-27 02:02:31;28,15;1014,7;24;0;0
2019-06-27 02:03:02;28,12;1014,7;24;0;0
2019-06-27 02:03:31;28,07;1014,71;24;0;0
2019-06-27 02:04:01;28,06;1014,7;24;0;0
2019-06-27 02:04:31;28,15;1014,7;24;0;0
2019-06-27 02:05:01;28,15;1014,7;24;0;0
2019-06-27 02:05:31;28,1;1014,7;24;0;0
2019-06-27 02:06:01;27,96;1014,7;24;0;0
2019-06-27 02:06:32;28,13;1014,71;24;0;0
2019-06-27 02:07:01;28,12;1014,71;24;0;0
2019-06-27 02:07:31;28,02;1014,72;24;0;0
2019-06-27 02:08:01;28,01;1014,71;24;0;0
2019-06-27 02:08:31;27,98;1014,73;24;0;0
2019-06-27 02:09:01;27,93;1014,8;24;0;0
2019-06-27 02:09:31;27,93;1014,76;24;0;0
2019-06-27 02:10:01;27,98;1014,75;24;0;0
2019-06-27 02:10:31;27,98;1014,73;24;0;0
2019-06-27 02:11:01;28,07;1014,75;24;0;0
2019-06-27 02:11:31;28,05;1014,76;24;0;0
2019-06-27 02:12:01;27,92;1014,75;23;0;0
2019-06-27 02:12:31;28,08;1014,74;23;2,56;0
2019-06-27 02:13:01;28,04;1014,75;24;0;0
2019-06-27 02:13:31;28,03;1014,73;24;0;0
2019-06-27 02:14:01;28,16;1014,72;24;0;0
2019-06-27 02:14:31;28,02;1014,72;24;0;0
2019-06-27 02:15:01;28,07;1014,73;24;0;0
2019-06-27 02:15:31;28,01;1014,74;24;0;0
2019-06-27 02:16:01;27,98;1014,74;24;0;0
2019-06-27 02:16:32;27,98;1014,72;24;0;0
2019-06-27 02:17:01;28,13;1014,71;24;0;0
2019-06-27 02:17:31;28,13;1014,71;24;0;0
2019-06-27 02:18:01;28,03;1014,7;24;0;0
2019-06-27 02:18:31;27,93;1014,71;24;0;0
2019-06-27 02:19:01;27,94;1014,73;23;0;0
2019-06-27 02:19:31;27,88;1014,74;24;0;0
2019-06-27 02:20:01;28,03;1014,73;24;1,83;56
2019-06-27 02:20:31;27,9;1014,73;23;0;0
2019-06-27 02:21:01;27,69;1014,73;24;0;0
2019-06-27 02:21:31;27,94;1014,75;24;0;0
2019-06-27 02:22:02;27,86;1014,74;24;0;0
2019-06-27 02:22:31;27,96;1014,73;24;0;0
2019-06-27 02:23:01;28,02;1014,75;23;0;0
2019-06-27 02:23:31;27,79;1014,74;24;0;0
2019-06-27 02:24:01;27,81;1014,72;24;0;0
2019-06-27 02:24:31;27,91;1014,74;24;0;0
2019-06-27 02:25:01;27,79;1014,74;24;0;0
2019-06-27 02:25:31;27,92;1014,74;24;0;0
2019-06-27 02:26:01;27,95;1014,78;24;0;0
2019-06-27 02:26:32;27,69;1014,77;24;0;0
2019-06-27 02:27:01;27,76;1014,79;24;0;0
2019-06-27 02:27:31;27,74;1014,77;24;0;0
2019-06-27 02:28:01;27,56;1014,77;24;0;0
2019-06-27 02:28:31;27,65;1014,75;24;0;0
2019-06-27 02:29:01;27,6;1014,74;23;0;0
2019-06-27 02:29:31;27,58;1014,74;24;0;0
2019-06-27 02:30:01;27,61;1014,72;24;0;0
2019-06-27 02:30:31;27,38;1014,73;24;0;0
2019-06-27 02:31:01;27,43;1014,73;24;0;0
2019-06-27 02:31:31;27,43;1014,72;24;0;0
2019-06-27 02:32:01;27,39;1014,71;24;0;0
2019-06-27 02:32:31;27,4;1014,7;24;0;0
2019-06-27 02:33:01;27,27;1014,71;24;0;0
2019-06-27 02:33:31;27,45;1014,72;24;0;0
2019-06-27 02:34:01;27,38;1014,71;24;0;0
2019-06-27 02:34:31;27,53;1014,72;24;0;0
2019-06-27 02:35:01;27,43;1014,72;23;0;0
2019-06-27 02:35:31;27,35;1014,71;23;0;0
2019-06-27 02:36:01;27,39;1014,71;23;0;0
2019-06-27 02:36:32;27,58;1014,73;23;0;0
2019-06-27 02:37:02;27,58;1014,75;24;0;0
2019-06-27 02:37:31;27,61;1014,75;23;0;0
2019-06-27 02:38:01;27,36;1014,74;24;0;0
2019-06-27 02:38:31;27,29;1014,74;23;0;0
2019-06-27 02:39:01;27,35;1014,72;24;0;0
2019-06-27 02:39:31;27,26;1014,72;23;0;0
2019-06-27 02:40:01;27,26;1014,74;24;0;0
2019-06-27 02:40:31;27,29;1014,75;24;0;0
2019-06-27 02:41:01;27,31;1014,76;24;0;0
2019-06-27 02:41:34;0;1014,76;24;0;0
2019-06-27 02:42:01;27,25;1014,79;24;0;0
2019-06-27 02:42:31;27,15;1014,75;24;0;0
2019-06-27 02:43:01;27,28;1014,74;24;0;0
2019-06-27 02:43:31;27,32;1014,77;24;0;0
2019-06-27 02:44:01;27,19;1014,81;24;2,2;0
2019-06-27 02:44:31;27,18;1014,82;23;0;0
2019-06-27 02:45:01;27,21;1014,81;24;0;0
2019-06-27 02:45:31;27,04;1014,81;24;0;0
2019-06-27 02:46:01;27,1;1014,84;24;0;0
2019-06-27 02:46:32;27,18;1014,84;23;0;0
2019-06-27 02:47:01;27,06;1014,85;23;0;0
2019-06-27 02:47:31;27,14;1014,83;23;0;0
2019-06-27 02:48:01;27,2;1014,85;24;0;0
2019-06-27 02:48:31;27,11;1014,83;24;0;0
2019-06-27 02:49:01;27,01;1014,83;24;0;0
2019-06-27 02:49:31;27,08;1014,83;23;0;0
2019-06-27 02:50:01;27,03;1014,84;23;0;0
2019-06-27 02:50:31;27,12;1014,9;24;0;0
2019-06-27 02:51:01;27,06;1014,94;23;2,51;330
2019-06-27 02:51:31;27,08;1014,91;24;0;0
2019-06-27 02:52:01;27,08;1014,94;23;0;0
2019-06-27 02:52:31;26,98;1014,94;24;0;0
2019-06-27 02:53:01;26,98;1014,95;24;2,56;66
2019-06-27 02:53:31;26,98;1014,94;24;0;0
2019-06-27 02:54:01;26,94;1014,95;24;0;0
2019-06-27 02:54:31;26,93;1015;24;0;0
2019-06-27 02:55:02;26,99;1015,02;23;0;0
2019-06-27 02:55:32;26,98;1015,03;23;0;0
2019-06-27 02:56:01;27;1015,01;23;0;0
2019-06-27 02:56:31;27,01;1015,02;24;0;0
2019-06-27 02:57:01;26,84;1015,04;23;0;0
2019-06-27 02:57:31;26,88;1015,02;23;2,56;297
2019-06-27 02:58:01;26,98;1015,07;24;0;0
2019-06-27 02:58:31;27,03;1015,07;24;0;0
2019-06-27 02:59:02;26,92;1015,07;24;0;0
2019-06-27 02:59:31;26,81;1015,08;23;0;0
2019-06-27 03:00:01;26,81;1015,14;24;0;0
2019-06-27 03:00:31;26,79;1015,1;23;0;0
2019-06-27 03:01:01;26,86;1015,14;23;0;0
2019-06-27 03:01:31;26,89;1015,09;23;0;0
2019-06-27 03:02:01;26,79;1015,1;23;0;0
2019-06-27 03:02:31;26,78;1015,17;23;0;0
2019-06-27 03:03:01;26,75;1015,16;24;0;0
2019-06-27 03:03:32;26,68;1015,1;23;0;0
2019-06-27 03:04:01;26,7;1015,07;23;0;0
2019-06-27 03:04:31;26,76;1015,12;23;0;0
2019-06-27 03:05:01;26,66;1015,12;23;0;0
2019-06-27 03:05:31;26,57;1015,24;23;0;0
2019-06-27 03:06:01;26,56;1015,28;24;0;0
2019-06-27 03:06:31;26,65;1015,27;23;2,47;251
2019-06-27 03:07:01;26,65;1015,24;23;0;0
2019-06-27 03:07:31;26,64;1015,28;23;0;0
2019-06-27 03:08:01;26,63;1015,22;24;0;0
2019-06-27 03:08:31;26,51;1015,18;24;0;0
2019-06-27 03:09:01;26,5;1015,19;23;0;0
2019-06-27 03:09:31;26,4;1015,26;23;0;0
2019-06-27 03:10:01;26,42;1015,28;23;2,8;61
2019-06-27 03:10:32;26,34;1015,24;23;0;0
2019-06-27 03:11:01;26,35;1015,34;24;0;0
2019-06-27 03:11:31;26,26;1015,39;24;0;0
2019-06-27 03:12:01;26,27;1015,34;24;0;0
2019-06-27 03:12:31;26,26;1015,33;23;0;0
2019-06-27 03:13:02;26,22;1015,33;23;0;0
2019-06-27 03:13:31;26,28;1015,34;23;0;0
2019-06-27 03:14:01;26,21;1015,34;23;0;0
2019-06-27 03:14:31;26,2;1015,34;23;0;0
2019-06-27 03:15:01;26,24;1015,36;23;0;0
2019-06-27 03:15:31;26,19;1015,4;23;0;0
2019-06-27 03:16:01;26,09;1015,42;24;0;0
2019-06-27 03:16:31;25,99;1015,4;24;0;0
2019-06-27 03:17:01;26,12;1015,37;24;0;0
2019-06-27 03:17:31;26,17;1015,41;24;0;0
2019-06-27 03:18:01;26,23;1015,43;23;0;0
2019-06-27 03:18:31;26,18;1015,48;23;0;0
2019-06-27 03:19:01;26,18;1015,45;24;0;0
2019-06-27 03:19:31;26,05;1015,41;24;0;0
2019-06-27 03:20:01;25,97;1015,4;23;0;0
2019-06-27 03:20:32;26,1;1015,33;23;0;0
2019-06-27 03:21:01;26,01;1015,37;23;0;0
2019-06-27 03:21:31;25,8;1015,38;23;0;0
2019-06-27 03:22:01;25,95;1015,41;24;0;0
2019-06-27 03:22:31;25,91;1015,38;23;0;0
2019-06-27 03:23:02;25,94;1015,4;23;0;0
2019-06-27 03:23:31;25,97;1015,43;23;0;0
2019-06-27 03:24:01;26,04;1015,45;23;0;0
2019-06-27 03:24:31;25,99;1015,39;23;0;0
2019-06-27 03:25:01;25,87;1015,4;23;0;0
2019-06-27 03:25:31;25,86;1015,44;23;0;0
2019-06-27 03:26:01;25,86;1015,5;23;0;0
2019-06-27 03:26:31;25,71;1015,51;23;0;0
2019-06-27 03:27:01;25,83;1015,5;24;0;0
2019-06-27 03:27:31;25,78;1015,47;24;0;0
2019-06-27 03:28:01;25,83;1015,5;23;0;0
2019-06-27 03:28:31;25,71;1015,53;24;0;0
2019-06-27 03:29:01;25,78;1015,54;23;0;0
2019-06-27 03:29:32;25,81;1015,49;24;0;0
2019-06-27 03:30:01;25,81;1015,43;23;0;0
2019-06-27 03:30:31;25,8;1015,53;23;0;0
2019-06-27 03:31:01;25,79;1015,51;23;0;0
2019-06-27 03:31:31;25,72;1015,43;23;0;0
2019-06-27 03:32:01;25,69;1015,45;23;0;0
2019-06-27 03:32:31;25,6;1015,45;23;0;0
2019-06-27 03:33:01;25,68;1015,44;23;0;0
2019-06-27 03:33:31;25,61;1015,51;23;0;0
2019-06-27 03:34:01;25,79;1015,49;23;0;0
2019-06-27 03:34:31;25,62;1015,51;23;0;0
2019-06-27 03:35:01;25,58;1015,5;23;0;0
2019-06-27 03:35:31;25,65;1015,53;23;0;0
2019-06-27 03:36:01;25,63;1015,58;23;0;0
2019-06-27 03:36:31;25,58;1015,59;23;0;0
2019-06-27 03:37:01;25,67;1015,6;23;0;0
2019-06-27 03:37:31;25,67;1015,59;23;0;0
2019-06-27 03:38:02;25,5;1015,61;23;0;0
2019-06-27 03:38:31;25,64;1015,59;23;0;0
2019-06-27 03:39:01;25,69;1015,61;23;0;0
2019-06-27 03:39:31;25,53;1015,64;23;0;0
2019-06-27 03:40:01;25,63;1015,59;23;2,25;0
2019-06-27 03:40:32;25,52;1015,59;23;0;0
2019-06-27 03:41:01;25,64;1015,59;23;0;0
2019-06-27 03:41:31;25,59;1015,58;23;0;0
2019-06-27 03:42:01;25,64;1015,56;23;0;0
2019-06-27 03:42:31;25,56;1015,58;23;0;0
2019-06-27 03:43:01;25,52;1015,62;23;0;0
2019-06-27 03:43:31;25,58;1015,64;23;0;0
2019-06-27 03:44:01;25,59;1015,63;23;0;0
2019-06-27 03:44:31;25,41;1015,62;23;0;0
2019-06-27 03:45:01;25,53;1015,64;23;0;0
2019-06-27 03:45:31;25,47;1015,65;23;0;0
2019-06-27 03:46:01;25,37;1015,62;23;0;0
2019-06-27 03:46:31;25,34;1015,61;23;0;0
2019-06-27 03:47:01;25,24;1015,61;23;0;0
2019-06-27 03:47:31;25,31;1015,64;23;0;0
2019-06-27 03:48:01;25,38;1015,64;23;0;0
2019-06-27 03:48:31;25,35;1015,65;23;0;0
2019-06-27 03:49:01;25,46;1015,61;23;0;0
2019-06-27 03:49:32;25,27;1015,64;23;0;0
2019-06-27 03:50:01;25,4;1015,65;23;0;0
2019-06-27 03:50:31;25,35;1015,66;24;0;0
2019-06-27 03:51:01;25,26;1015,65;23;0;0
2019-06-27 03:51:31;25,26;1015,66;23;0;0
2019-06-27 03:52:01;25,3;1015,64;23;0;0
2019-06-27 03:52:31;25,25;1015,64;23;0;0
2019-06-27 03:53:01;25,1;1015,66;23;0;0
2019-06-27 03:53:31;25,19;1015,65;23;0;0
2019-06-27 03:54:02;25,23;1015,63;23;0;0
2019-06-27 03:54:31;25,15;1015,65;23;0;0
2019-06-27 03:55:01;25,18;1015,64;23;0;0
2019-06-27 03:55:31;25,05;1015,65;23;0;0
2019-06-27 03:56:02;25,16;1015,65;23;0;0
2019-06-27 03:56:32;25,07;1015,65;23;0;0
2019-06-27 03:57:01;25,16;1015,65;23;0;0
2019-06-27 03:57:31;25,08;1015,66;23;0;0
2019-06-27 03:58:01;25,07;1015,66;23;0;0
2019-06-27 03:58:31;24,99;1015,66;23;0;0
2019-06-27 03:59:01;24,88;1015,67;23;0;0
2019-06-27 03:59:31;25;1015,67;23;0;0
2019-06-27 04:00:01;24,93;1015,67;23;0;0
2019-06-27 04:00:31;24,98;1015,67;23;0;0
2019-06-27 04:01:01;24,98;1015,67;23;0;0
2019-06-27 04:01:31;25;1015,67;23;0;0
2019-06-27 04:02:01;24,88;1015,67;24;0;0
2019-06-27 04:02:31;24,81;1015,67;23;0;0
2019-06-27 04:03:01;24,87;1015,66;23;0;0
2019-06-27 04:03:31;25,03;1015,67;24;0;0
2019-06-27 04:04:01;24,88;1015,67;23;0;0
2019-06-27 04:04:31;24,9;1015,67;23;0;0
2019-06-27 04:05:01;24,85;1015,67;23;2,58;62
2019-06-27 04:05:31;24,97;1015,65;23;0;0
2019-06-27 04:06:01;24,92;1015,66;24;0;0
2019-06-27 04:06:32;24,98;1015,67;23;0;0
2019-06-27 04:07:01;24,89;1015,67;24;0;0
2019-06-27 04:07:31;24,92;1015,66;24;0;0
2019-06-27 04:08:01;24,91;1015,67;24;0;0
2019-06-27 04:08:31;24,94;1015,67;24;0;0
2019-06-27 04:09:02;24,78;1015,67;24;0;0
2019-06-27 04:09:31;24,7;1015,67;24;0;0
2019-06-27 04:10:01;24,75;1015,67;24;0;0
2019-06-27 04:10:31;24,82;1015,67;24;0;0
2019-06-27 04:11:01;24,77;1015,66;24;0;0
2019-06-27 04:11:31;24,85;1015,67;24;0;0
2019-06-27 04:12:01;24,64;1015,67;24;0;0
2019-06-27 04:12:31;24,65;1015,67;24;0;0
2019-06-27 04:13:01;24,67;1015,67;24;0;0
2019-06-27 04:13:31;24,76;1015,66;24;0;0
2019-06-27 04:14:01;24,72;1015,67;24;0;0
2019-06-27 04:14:31;24,68;1015,67;24;0;0
2019-06-27 04:15:01;24,75;1015,67;25;0;0
2019-06-27 04:15:31;24,73;1015,67;25;0;0
2019-06-27 04:16:01;24,71;1015,67;27;0;0
2019-06-27 04:16:32;24,56;1015,66;26;0;0
2019-06-27 04:17:01;24,53;1015,67;27;0;0
2019-06-27 04:17:31;24,4;1015,67;28;0;0
2019-06-27 04:18:01;24,49;1015,67;29;0;0
2019-06-27 04:18:31;24,49;1015,67;30;0;0
2019-06-27 04:19:01;24,42;1015,67;30;0;0
2019-06-27 04:19:31;24,45;1015,67;30;0;0
2019-06-27 04:20:01;24,46;1015,67;31;0;0
2019-06-27 04:20:31;24,42;1015,67;31;0;0
2019-06-27 04:21:01;24,31;1015,67;31;0;0
2019-06-27 04:21:31;24,41;1015,67;32;0;0
2019-06-27 04:22:01;24,42;1015,67;32;0;0
2019-06-27 04:22:31;24,27;1015,67;32;0;0
2019-06-27 04:23:01;24,27;1015,67;33;0;0
2019-06-27 04:23:31;24,31;1015,67;35;0;0
2019-06-27 04:24:02;24,46;1015,67;36;0;0
2019-06-27 04:24:31;24,47;1015,67;38;0;0
2019-06-27 04:25:01;24,43;1015,67;39;0;0
2019-06-27 04:25:32;24,38;1015,67;39;0;0
2019-06-27 04:26:01;24,3;1015,67;40;0;0
2019-06-27 04:26:31;24,36;1015,67;41;0;0
2019-06-27 04:27:01;24,25;1015,67;43;0;0
2019-06-27 04:27:31;24,35;1015,67;45;0;0
2019-06-27 04:28:01;24,36;1015,67;47;0;0
2019-06-27 04:28:31;24,27;1015,67;48;0;0
2019-06-27 04:29:01;24,33;1015,69;50;0;0
2019-06-27 04:29:31;24,36;1015,69;53;0;0
2019-06-27 04:30:01;24,22;1015,68;55;0;0
2019-06-27 04:30:31;24,26;1015,7;57;0;0
2019-06-27 04:31:01;24,3;1015,69;59;0;0
2019-06-27 04:31:31;24,25;1015,68;62;0;0
2019-06-27 04:32:01;24,22;1015,68;64;0;0
2019-06-27 04:32:31;24,18;1015,68;66;0;0
2019-06-27 04:33:01;24,09;1015,68;69;0;0
2019-06-27 04:33:31;24,21;1015,68;71;0;0
2019-06-27 04:34:01;24,26;1015,68;73;0;0
2019-06-27 04:34:31;24,18;1015,68;77;0;0
2019-06-27 04:35:01;24,1;1015,68;78;0;0
2019-06-27 04:35:32;24,08;1015,68;82;0;0
2019-06-27 04:36:01;24,07;1015,68;85;0;0
2019-06-27 04:36:31;24,14;1015,69;88;0;0
2019-06-27 04:37:01;23,99;1015,69;91;0;0
2019-06-27 04:37:31;24,09;1015,68;94;0;0
2019-06-27 04:38:01;24,12;1015,69;97;0;0
2019-06-27 04:38:31;24,34;1015,7;101;0;0
2019-06-27 04:39:01;24,12;1015,69;103;0;0
2019-06-27 04:39:31;24,23;1015,69;107;0;0
2019-06-27 04:40:01;24,16;1015,69;110;0;0
2019-06-27 04:40:31;24,1;1015,69;114;0;0
2019-06-27 04:41:01;24,08;1015,68;117;0;0
2019-06-27 04:41:31;24;1015,69;121;0;0
2019-06-27 04:42:01;24,01;1015,7;124;0;0
2019-06-27 04:42:31;24,22;1015,69;128;0;0
2019-06-27 04:43:01;24,22;1015,7;132;0;0
2019-06-27 04:43:31;24,22;1015,69;136;0;0
2019-06-27 04:44:01;24,11;1015,71;141;0;0
2019-06-27 04:44:31;24,17;1015,7;144;0;0
2019-06-27 04:45:02;24,15;1015,7;148;0;0
2019-06-27 04:45:32;24,16;1015,71;153;0;0
2019-06-27 04:46:01;24;1015,72;158;0;0
2019-06-27 04:46:31;24,13;1015,7;163;0;0
2019-06-27 04:47:02;24,13;1015,69;168;0;0
2019-06-27 04:47:31;24,13;1015,7;174;0;0
2019-06-27 04:48:01;24,19;1015,69;179;0;0
2019-06-27 04:48:31;24,1;1015,7;185;0;0
2019-06-27 04:49:01;24,11;1015,73;193;0;0
2019-06-27 04:49:31;24,11;1015,71;200;0;0
2019-06-27 04:50:01;24,05;1015,71;206;0;0
2019-06-27 04:50:31;24,02;1015,72;213;0;0
2019-06-27 04:51:01;23,97;1015,72;219;0;0
2019-06-27 04:51:31;24,01;1015,71;226;0;0